Time,TemperatureF,DewpointF,PressureIn,WindDirection,WindDirectionDegrees,WindSpeedMPH,WindSpeedGustMPH,Humidity,HourlyPrecipIn,Conditions,Clouds,dailyrainin,SoftwareType,DateUTC
2013-02-01 00:02:00,23.5,21.5,30.48,WNW,302,0.0,0.0,92,0.00,,,0.00,HR-IXPWINDi_r2_v1.2.,2013-02-01 07:02:00,
2013-02-01 00:08:00,23.2,21.2,30.48,WNW,302,0.0,0.0,92,0.00,,,0.00,HR-IXPWINDi_r2_v1.2.,2013-02-01 07:08:00,
2013-02-01 00:13:00,22.9,20.7,30.49,WNW,302,0.0,0.0,91,0.00,,,0.00,HR-IXPWINDi_r2_v1.2.,2013-02-01 07:13:00,
2013-02-01 00:18:00,22.6,20.4,30.49,WNW,302,0.0,0.0,91,0.00,,,0.00,HR-IXPWINDi_r2_v1.2.,2013-02-01 07:18:00,
2013-02-01 00:24:00,22.4,20.4,30.48,NW,308,0.0,0.0,92,0.00,,,0.00,HR-IXPWINDi_r2_v1.2.,2013-02-01 07:24:00,
2013-02-01 00:29:00,22.4,20.4,30.48,NW,308,0.0,0.0,92,0.00,,,0.00,HR-IXPWINDi_r2_v1.2.,2013-02-01 07:29:00,
2013-02-01 00:34:00,22.2,20.2,30.48,NW,308,0.0,0.0,92,0.00,,,0.00,HR-IXPWINDi_r2_v1.2.,2013-02-01 07:34:00,
2013-02-01 00:39:00,22.3,20.6,30.48,NW,308,0.0,0.0,93,0.00,,,0.00,HR-IXPWINDi_r2_v1.2.,2013-02-01 07:39:00,
2013-02-01 00:44:00,22.5,20.8,30.48,NW,308,0.0,0.0,93,0.00,,,0.00,HR-IXPWINDi_r2_v1.2.,2013-02-01 07:44:00,
2013-02-01 00:50:00,22.1,20.1,30.48,NW,323,0.0,0.0,92,0.00,,,0.00,HR-IXPWINDi_r2_v1.2.,2013-02-01 07:50:00,
2013-02-01 00:55:00,21.9,19.9,30.48,NW,323,0.0,0.0,92,0.00,,,0.00,HR-IXPWINDi_r2_v1.2.,2013-02-01 07:55:00,
2013-02-01 01:00:00,21.8,19.8,30.48,NW,323,0.0,0.0,92,0.00,,,0.00,HR-IXPWINDi_r2_v1.2.,2013-02-01 08:00:00,
2013-02-01 01:05:00,21.7,19.7,30.48,NW,323,0.0,0.0,92,0.00,,,0.00,HR-IXPWINDi_r2_v1.2.,2013-02-01 08:05:00,
2013-02-01 01:11:00,21.5,19.5,30.48,NW,323,0.0,0.0,92,0.00,,,0.00,HR-IXPWINDi_r2_v1.2.,2013-02-01 08:11:00,
2013-02-01 01:16:00,21.2,19.3,30.47,NW,323,0.0,0.0,92,0.00,,,0.00,HR-IXPWINDi_r2_v1.2.,2013-02-01 08:16:00,
2013-02-01 01:21:00,21.2,19.3,30.47,NW,323,0.0,0.0,92,0.00,,,0.00,HR-IXPWINDi_r2_v1.2.,2013-02-01 08:21:00,
2013-02-01 01:26:00,21.3,19.6,30.48,NW,321,0.0,0.0,93,0.00,,,0.00,HR-IXPWINDi_r2_v1.2.,2013-02-01 08:26:00,
2013-02-01 01:32:00,21.3,19.6,30.48,NW,321,0.0,0.0,93,0.00,,,0.00,HR-IXPWINDi_r2_v1.2.,2013-02-01 08:32:00,
2013-02-01 01:37:00,21.1,19.2,30.48,NW,323,0.0,0.0,92,0.00,,,0.00,HR-IXPWINDi_r2_v1.2.,2013-02-01 08:37:00,
2013-02-01 01:42:00,20.9,19.0,30.48,NW,323,0.0,0.0,92,0.00,,,0.00,HR-IXPWINDi_r2_v1.2.,2013-02-01 08:42:00,
2013-02-01 01:47:00,20.9,19.0,30.48,NW,323,0.0,0.0,92,0.00,,,0.00,HR-IXPWINDi_r2_v1.2.,2013-02-01 08:47:00,
2013-02-01 01:52:00,20.8,18.9,30.48,NW,323,0.0,0.0,92,0.00,,,0.00,HR-IXPWINDi_r2_v1.2.,2013-02-01 08:52:00,
2013-02-01 01:58:00,20.8,18.9,30.48,WNW,302,0.0,0.0,92,0.00,,,0.00,HR-IXPWINDi_r2_v1.2.,2013-02-01 08:58:00,
2013-02-01 02:03:00,20.8,18.9,30.48,WNW,284,0.0,0.0,92,0.00,,,0.00,HR-IXPWINDi_r2_v1.2.,2013-02-01 09:03:00,
2013-02-01 02:08:00,20.7,18.8,30.49,West,278,0.0,0.0,92,0.00,,,0.00,HR-IXPWINDi_r2_v1.2.,2013-02-01 09:08:00,
2013-02-01 02:13:00,20.7,18.8,30.49,West,278,0.0,0.0,92,0.00,,,0.00,HR-IXPWINDi_r2_v1.2.,2013-02-01 09:13:00,
2013-02-01 02:19:00,20.8,18.9,30.49,West,278,0.0,0.0,92,0.00,,,0.00,HR-IXPWINDi_r2_v1.2.,2013-02-01 09:19:00,
2013-02-01 02:24:00,20.6,18.7,30.49,West,278,0.0,0.0,92,0.00,,,0.00,HR-IXPWINDi_r2_v1.2.,2013-02-01 09:24:00,
2013-02-01 02:29:00,20.4,18.5,30.49,West,278,0.0,0.0,92,0.00,,,0.00,HR-IXPWINDi_r2_v1.2.,2013-02-01 09:29:00,
2013-02-01 02:34:00,20.1,18.2,30.49,West,278,0.0,0.0,92,0.00,,,0.00,HR-IXPWINDi_r2_v1.2.,2013-02-01 09:34:00,
2013-02-01 02:40:00,19.9,18.0,30.49,West,278,0.0,0.0,92,0.00,,,0.00,HR-IXPWINDi_r2_v1.2.,2013-02-01 09:40:00,
2013-02-01 02:45:00,19.8,17.9,30.48,West,278,0.0,0.0,92,0.00,,,0.00,HR-IXPWINDi_r2_v1.2.,2013-02-01 09:45:00,
2013-02-01 02:50:00,20.2,18.5,30.49,West,278,0.0,0.0,93,0.00,,,0.00,HR-IXPWINDi_r2_v1.2.,2013-02-01 09:50:00,
2013-02-01 02:55:00,20.2,18.5,30.48,West,279,0.0,0.0,93,0.00,,,0.00,HR-IXPWINDi_r2_v1.2.,2013-02-01 09:55:00,
2013-02-01 03:01:00,20.2,18.3,30.48,West,280,0.0,0.0,92,0.00,,,0.00,HR-IXPWINDi_r2_v1.2.,2013-02-01 10:01:00,
2013-02-01 03:06:00,20.2,18.5,30.48,West,279,0.0,0.0,93,0.00,,,0.00,HR-IXPWINDi_r2_v1.2.,2013-02-01 10:06:00,
2013-02-01 03:11:00,20.3,18.6,30.48,West,279,0.0,0.0,93,0.00,,,0.00,HR-IXPWINDi_r2_v1.2.,2013-02-01 10:11:00,
2013-02-01 03:16:00,20.1,18.4,30.48,North,9,0.0,0.0,93,0.00,,,0.00,HR-IXPWINDi_r2_v1.2.,2013-02-01 10:16:00,
2013-02-01 03:21:00,20.0,18.1,30.47,North,9,0.0,0.0,92,0.00,,,0.00,HR-IXPWINDi_r2_v1.2.,2013-02-01 10:21:00,
2013-02-01 03:27:00,20.0,18.3,30.47,North,9,0.0,0.0,93,0.00,,,0.00,HR-IXPWINDi_r2_v1.2.,2013-02-01 10:27:00,
2013-02-01 03:32:00,19.8,17.9,30.47,North,9,0.0,0.0,92,0.00,,,0.00,HR-IXPWINDi_r2_v1.2.,2013-02-01 10:32:00,
2013-02-01 03:37:00,19.6,17.7,30.48,North,10,0.0,0.0,92,0.00,,,0.00,HR-IXPWINDi_r2_v1.2.,2013-02-01 10:37:00,
2013-02-01 03:43:00,19.4,17.5,30.48,North,10,0.0,0.0,92,0.00,,,0.00,HR-IXPWINDi_r2_v1.2.,2013-02-01 10:43:00,
2013-02-01 03:48:00,19.2,17.3,30.47,North,9,0.0,0.0,92,0.00,,,0.00,HR-IXPWINDi_r2_v1.2.,2013-02-01 10:48:00,
2013-02-01 03:53:00,19.2,17.5,30.47,North,10,0.0,0.0,93,0.00,,,0.00,HR-IXPWINDi_r2_v1.2.,2013-02-01 10:53:00,
2013-02-01 03:58:00,18.9,17.0,30.47,North,9,0.0,0.0,92,0.00,,,0.00,HR-IXPWINDi_r2_v1.2.,2013-02-01 10:58:00,
2013-02-01 04:03:00,19.0,17.3,30.48,North,9,0.0,0.0,93,0.00,,,0.00,HR-IXPWINDi_r2_v1.2.,2013-02-01 11:03:00,
2013-02-01 04:08:00,19.2,17.5,30.48,WNW,287,0.0,0.0,93,0.00,,,0.00,HR-IXPWINDi_r2_v1.2.,2013-02-01 11:08:00,
2013-02-01 04:13:00,19.1,17.4,30.47,NNE,18,0.0,0.0,93,0.00,,,0.00,HR-IXPWINDi_r2_v1.2.,2013-02-01 11:13:00,
2013-02-01 04:18:00,19.2,17.5,30.47,NNE,18,0.0,0.0,93,0.00,,,0.00,HR-IXPWINDi_r2_v1.2.,2013-02-01 11:18:00,
2013-02-01 04:23:00,19.1,17.2,30.47,NNE,19,0.0,0.0,92,0.00,,,0.00,HR-IXPWINDi_r2_v1.2.,2013-02-01 11:23:00,
2013-02-01 04:29:00,19.0,17.1,30.48,NNE,19,0.0,0.0,92,0.00,,,0.00,HR-IXPWINDi_r2_v1.2.,2013-02-01 11:29:00,
2013-02-01 04:34:00,18.8,16.9,30.48,NNE,19,0.0,0.0,92,0.00,,,0.00,HR-IXPWINDi_r2_v1.2.,2013-02-01 11:34:00,
2013-02-01 04:39:00,18.8,16.9,30.49,NNE,26,0.0,0.0,92,0.00,,,0.00,HR-IXPWINDi_r2_v1.2.,2013-02-01 11:39:00,
2013-02-01 04:44:00,18.6,16.4,30.49,NNE,26,0.0,0.0,91,0.00,,,0.00,HR-IXPWINDi_r2_v1.2.,2013-02-01 11:44:00,
2013-02-01 04:49:00,18.8,16.9,30.49,SW,224,0.0,0.0,92,0.00,,,0.00,HR-IXPWINDi_r2_v1.2.,2013-02-01 11:49:00,
2013-02-01 04:54:00,18.9,17.2,30.49,SW,224,0.0,0.0,93,0.00,,,0.00,HR-IXPWINDi_r2_v1.2.,2013-02-01 11:54:00,
2013-02-01 05:00:00,19.0,17.3,30.49,SW,215,0.0,0.0,93,0.00,,,0.00,HR-IXPWINDi_r2_v1.2.,2013-02-01 12:00:00,
2013-02-01 05:05:00,19.1,17.4,30.48,SSE,162,0.0,0.0,93,0.00,,,0.00,HR-IXPWINDi_r2_v1.2.,2013-02-01 12:05:00,
2013-02-01 05:10:00,19.2,17.5,30.48,SW,218,0.0,0.0,93,0.00,,,0.00,HR-IXPWINDi_r2_v1.2.,2013-02-01 12:10:00,
2013-02-01 05:15:00,19.2,17.3,30.48,SW,218,0.0,0.0,92,0.00,,,0.00,HR-IXPWINDi_r2_v1.2.,2013-02-01 12:15:00,
2013-02-01 05:20:00,19.1,17.2,30.48,NE,41,0.0,0.0,92,0.00,,,0.00,HR-IXPWINDi_r2_v1.2.,2013-02-01 12:20:00,
2013-02-01 05:25:00,19.0,17.1,30.49,NE,44,0.0,0.0,92,0.00,,,0.00,HR-IXPWINDi_r2_v1.2.,2013-02-01 12:25:00,
2013-02-01 05:30:00,18.9,17.0,30.49,NE,44,0.0,0.0,92,0.00,,,0.00,HR-IXPWINDi_r2_v1.2.,2013-02-01 12:30:00,
2013-02-01 05:36:00,18.9,17.0,30.48,NE,44,0.0,0.0,92,0.00,,,0.00,HR-IXPWINDi_r2_v1.2.,2013-02-01 12:36:00,
2013-02-01 05:41:00,18.8,16.9,30.49,NE,44,0.0,0.0,92,0.00,,,0.00,HR-IXPWINDi_r2_v1.2.,2013-02-01 12:41:00,
2013-02-01 05:46:00,18.7,16.8,30.49,NE,44,0.0,0.0,92,0.00,,,0.00,HR-IXPWINDi_r2_v1.2.,2013-02-01 12:46:00,
2013-02-01 05:51:00,18.8,16.9,30.48,NE,51,0.0,0.0,92,0.00,,,0.00,HR-IXPWINDi_r2_v1.2.,2013-02-01 12:51:00,
2013-02-01 05:56:00,18.8,16.9,30.48,NE,51,0.0,0.0,92,0.00,,,0.00,HR-IXPWINDi_r2_v1.2.,2013-02-01 12:56:00,
2013-02-01 06:01:00,18.8,17.1,30.48,NE,51,0.0,0.0,93,0.00,,,0.00,HR-IXPWINDi_r2_v1.2.,2013-02-01 13:01:00,
2013-02-01 06:06:00,18.6,16.7,30.49,NNE,32,1.0,3.0,92,0.00,,,0.00,HR-IXPWINDi_r2_v1.2.,2013-02-01 13:06:00,
2013-02-01 06:12:00,18.3,16.4,30.49,NNE,32,0.0,3.0,92,0.00,,,0.00,HR-IXPWINDi_r2_v1.2.,2013-02-01 13:12:00,
2013-02-01 06:17:00,18.2,16.3,30.49,NNE,32,0.0,2.0,92,0.00,,,0.00,HR-IXPWINDi_r2_v1.2.,2013-02-01 13:17:00,
2013-02-01 06:22:00,18.1,16.2,30.48,NNE,32,0.0,1.0,92,0.00,,,0.00,HR-IXPWINDi_r2_v1.2.,2013-02-01 13:22:00,
2013-02-01 06:27:00,18.0,16.1,30.48,NNE,32,0.0,0.0,92,0.00,,,0.00,HR-IXPWINDi_r2_v1.2.,2013-02-01 13:27:00,
2013-02-01 06:33:00,17.9,16.0,30.49,NNE,32,0.0,0.0,92,0.00,,,0.00,HR-IXPWINDi_r2_v1.2.,2013-02-01 13:33:00,
2013-02-01 06:38:00,17.9,16.0,30.49,ENE,65,1.0,2.0,92,0.00,,,0.00,HR-IXPWINDi_r2_v1.2.,2013-02-01 13:38:00,
2013-02-01 06:43:00,18.0,16.1,30.48,ENE,65,0.0,2.0,92,0.00,,,0.00,HR-IXPWINDi_r2_v1.2.,2013-02-01 13:43:00,
2013-02-01 06:48:00,17.9,15.7,30.49,ENE,65,0.0,1.0,91,0.00,,,0.00,HR-IXPWINDi_r2_v1.2.,2013-02-01 13:48:00,
2013-02-01 06:53:00,17.8,15.6,30.49,ENE,65,0.0,0.0,91,0.00,,,0.00,HR-IXPWINDi_r2_v1.2.,2013-02-01 13:53:00,
2013-02-01 06:58:00,17.9,16.0,30.49,ENE,65,0.0,0.0,92,0.00,,,0.00,HR-IXPWINDi_r2_v1.2.,2013-02-01 13:58:00,
2013-02-01 07:03:00,17.9,16.0,30.49,ENE,65,0.0,0.0,92,0.00,,,0.00,HR-IXPWINDi_r2_v1.2.,2013-02-01 14:03:00,
2013-02-01 07:09:00,17.8,15.9,30.49,ENE,65,0.0,0.0,92,0.00,,,0.00,HR-IXPWINDi_r2_v1.2.,2013-02-01 14:09:00,
2013-02-01 07:14:00,17.8,15.9,30.49,NE,36,0.0,2.0,92,0.00,,,0.00,HR-IXPWINDi_r2_v1.2.,2013-02-01 14:14:00,
2013-02-01 07:19:00,17.6,15.5,30.49,NE,36,0.0,2.0,91,0.00,,,0.00,HR-IXPWINDi_r2_v1.2.,2013-02-01 14:19:00,
2013-02-01 07:24:00,17.7,15.5,30.49,NE,36,0.0,1.0,91,0.00,,,0.00,HR-IXPWINDi_r2_v1.2.,2013-02-01 14:24:00,
2013-02-01 07:29:00,17.7,15.5,30.49,NE,36,0.0,0.0,91,0.00,,,0.00,HR-IXPWINDi_r2_v1.2.,2013-02-01 14:29:00,
2013-02-01 07:35:00,17.9,16.0,30.49,NE,36,0.0,0.0,92,0.00,,,0.00,HR-IXPWINDi_r2_v1.2.,2013-02-01 14:35:00,
2013-02-01 07:40:00,17.9,15.7,30.49,NW,326,0.0,0.0,91,0.00,,,0.00,HR-IXPWINDi_r2_v1.2.,2013-02-01 14:40:00,
2013-02-01 07:45:00,17.9,15.7,30.49,NNE,12,0.0,0.0,91,0.00,,,0.00,HR-IXPWINDi_r2_v1.2.,2013-02-01 14:45:00,
2013-02-01 07:50:00,18.2,16.0,30.50,North,360,0.0,0.0,91,0.00,,,0.00,HR-IXPWINDi_r2_v1.2.,2013-02-01 14:50:00,
2013-02-01 07:55:00,18.5,16.3,30.51,West,280,0.0,0.0,91,0.00,,,0.00,HR-IXPWINDi_r2_v1.2.,2013-02-01 14:55:00,
2013-02-01 08:00:00,18.6,16.4,30.51,West,280,0.0,0.0,91,0.00,,,0.00,HR-IXPWINDi_r2_v1.2.,2013-02-01 15:00:00,
2013-02-01 08:05:00,18.9,16.7,30.51,WSW,239,0.0,0.0,91,0.00,,,0.00,HR-IXPWINDi_r2_v1.2.,2013-02-01 15:05:00,
2013-02-01 08:11:00,19.4,17.2,30.51,WSW,243,0.0,0.0,91,0.00,,,0.00,HR-IXPWINDi_r2_v1.2.,2013-02-01 15:11:00,
2013-02-01 08:16:00,19.9,17.7,30.51,SW,228,0.0,0.0,91,0.00,,,0.00,HR-IXPWINDi_r2_v1.2.,2013-02-01 15:16:00,
2013-02-01 08:21:00,20.3,18.1,30.51,SW,231,0.0,0.0,91,0.00,,,0.00,HR-IXPWINDi_r2_v1.2.,2013-02-01 15:21:00,
2013-02-01 08:26:00,20.3,17.9,30.51,SW,234,0.0,0.0,90,0.00,,,0.00,HR-IXPWINDi_r2_v1.2.,2013-02-01 15:26:00,
2013-02-01 08:32:00,20.6,18.2,30.51,West,274,0.0,0.0,90,0.00,,,0.00,HR-IXPWINDi_r2_v1.2.,2013-02-01 15:32:00,
2013-02-01 08:37:00,21.1,18.6,30.50,West,274,0.0,0.0,90,0.00,,,0.00,HR-IXPWINDi_r2_v1.2.,2013-02-01 15:37:00,
2013-02-01 08:42:00,21.6,19.4,30.50,NNE,23,0.0,0.0,91,0.00,,,0.00,HR-IXPWINDi_r2_v1.2.,2013-02-01 15:42:00,
2013-02-01 08:47:00,22.5,20.3,30.50,NNE,24,0.0,0.0,91,0.00,,,0.00,HR-IXPWINDi_r2_v1.2.,2013-02-01 15:47:00,
2013-02-01 08:52:00,23.1,20.6,30.50,NNW,339,1.0,2.0,90,0.00,,,0.00,HR-IXPWINDi_r2_v1.2.,2013-02-01 15:52:00,
2013-02-01 08:57:00,23.5,21.0,30.51,NNE,27,0.0,2.0,90,0.00,,,0.00,HR-IXPWINDi_r2_v1.2.,2013-02-01 15:57:00,
2013-02-01 09:03:00,24.1,21.6,30.51,NNW,327,0.0,2.0,90,0.00,,,0.00,HR-IXPWINDi_r2_v1.2.,2013-02-01 16:03:00,
2013-02-01 09:08:00,24.5,21.7,30.51,NNE,15,1.0,1.0,89,0.00,,,0.00,HR-IXPWINDi_r2_v1.2.,2013-02-01 16:08:00,
2013-02-01 09:13:00,25.2,22.4,30.51,WNW,296,0.0,1.0,89,0.00,,,0.00,HR-IXPWINDi_r2_v1.2.,2013-02-01 16:13:00,
2013-02-01 09:18:00,25.4,22.3,30.51,NW,309,1.0,2.0,88,0.00,,,0.00,HR-IXPWINDi_r2_v1.2.,2013-02-01 16:18:00,
2013-02-01 09:23:00,25.5,22.2,30.51,West,281,1.0,2.0,87,0.00,,,0.00,HR-IXPWINDi_r2_v1.2.,2013-02-01 16:23:00,
2013-02-01 09:28:00,25.8,22.7,30.51,West,281,1.0,3.0,88,0.00,,,0.00,HR-IXPWINDi_r2_v1.2.,2013-02-01 16:28:00,
2013-02-01 09:33:00,26.2,22.9,30.51,SW,231,1.0,4.0,87,0.00,,,0.00,HR-IXPWINDi_r2_v1.2.,2013-02-01 16:33:00,
2013-02-01 09:38:00,26.6,23.0,30.51,WSW,245,0.0,4.0,86,0.00,,,0.00,HR-IXPWINDi_r2_v1.2.,2013-02-01 16:38:00,
2013-02-01 09:44:00,27.0,23.4,30.51,West,264,1.0,3.0,86,0.00,,,0.00,HR-IXPWINDi_r2_v1.2.,2013-02-01 16:44:00,
2013-02-01 09:49:00,27.4,24.0,30.52,WSW,257,2.0,3.0,87,0.00,,,0.00,HR-IXPWINDi_r2_v1.2.,2013-02-01 16:49:00,
2013-02-01 09:54:00,27.7,24.1,30.51,WSW,253,1.0,4.0,86,0.00,,,0.00,HR-IXPWINDi_r2_v1.2.,2013-02-01 16:54:00,
2013-02-01 09:59:00,28.1,24.2,30.51,West,276,0.0,4.0,85,0.00,,,0.00,HR-IXPWINDi_r2_v1.2.,2013-02-01 16:59:00,
2013-02-01 10:05:00,28.5,24.6,30.51,WNW,286,0.0,3.0,85,0.00,,,0.00,HR-IXPWINDi_r2_v1.2.,2013-02-01 17:05:00,
2013-02-01 10:10:00,28.8,24.6,30.51,SW,233,1.0,3.0,84,0.00,,,0.00,HR-IXPWINDi_r2_v1.2.,2013-02-01 17:10:00,
2013-02-01 10:15:00,29.2,24.7,30.51,West,266,1.0,3.0,83,0.00,,,0.00,HR-IXPWINDi_r2_v1.2.,2013-02-01 17:15:00,
2013-02-01 10:20:00,29.8,25.0,30.51,West,280,0.0,3.0,82,0.00,,,0.00,HR-IXPWINDi_r2_v1.2.,2013-02-01 17:20:00,
2013-02-01 10:25:00,30.5,25.4,30.51,NW,314,1.0,3.0,81,0.00,,,0.00,HR-IXPWINDi_r2_v1.2.,2013-02-01 17:25:00,
2013-02-01 10:30:00,30.9,25.4,30.51,WNW,288,0.0,3.0,80,0.00,,,0.00,HR-IXPWINDi_r2_v1.2.,2013-02-01 17:30:00,
2013-02-01 10:36:00,31.2,25.7,30.51,WSW,250,1.0,3.0,80,0.00,,,0.00,HR-IXPWINDi_r2_v1.2.,2013-02-01 17:36:00,
2013-02-01 10:41:00,31.9,25.8,30.51,WSW,253,0.0,2.0,78,0.00,,,0.00,HR-IXPWINDi_r2_v1.2.,2013-02-01 17:41:00,
2013-02-01 10:46:00,32.5,26.4,30.51,WSW,242,0.0,2.0,78,0.00,,,0.00,HR-IXPWINDi_r2_v1.2.,2013-02-01 17:46:00,
2013-02-01 10:51:00,33.2,26.8,30.51,West,271,0.0,2.0,77,0.00,,,0.00,HR-IXPWINDi_r2_v1.2.,2013-02-01 17:51:00,
2013-02-01 10:56:00,33.6,26.5,30.51,NW,319,0.0,3.0,75,0.00,,,0.00,HR-IXPWINDi_r2_v1.2.,2013-02-01 17:56:00,
2013-02-01 11:01:00,34.4,27.3,30.51,WSW,248,2.0,3.0,75,0.00,,,0.00,HR-IXPWINDi_r2_v1.2.,2013-02-01 18:01:00,
2013-02-01 11:07:00,34.6,27.2,30.51,West,270,0.0,2.0,74,0.00,,,0.00,HR-IXPWINDi_r2_v1.2.,2013-02-01 18:07:00,
2013-02-01 11:12:00,35.0,27.2,30.50,NW,312,3.0,4.0,73,0.00,,,0.00,HR-IXPWINDi_r2_v1.2.,2013-02-01 18:12:00,
2013-02-01 11:17:00,35.0,26.9,30.50,SW,229,1.0,4.0,72,0.00,,,0.00,HR-IXPWINDi_r2_v1.2.,2013-02-01 18:17:00,
2013-02-01 11:22:00,35.3,26.8,30.50,West,262,0.0,3.0,71,0.00,,,0.00,HR-IXPWINDi_r2_v1.2.,2013-02-01 18:22:00,
2013-02-01 11:27:00,35.5,27.4,30.50,NW,314,1.0,3.0,72,0.00,,,0.00,HR-IXPWINDi_r2_v1.2.,2013-02-01 18:27:00,
2013-02-01 11:32:00,35.6,27.1,30.50,WNW,289,1.0,4.0,71,0.00,,,0.00,HR-IXPWINDi_r2_v1.2.,2013-02-01 18:32:00,
2013-02-01 11:37:00,35.7,27.5,30.50,WSW,238,2.0,4.0,72,0.00,,,0.00,HR-IXPWINDi_r2_v1.2.,2013-02-01 18:37:00,
2013-02-01 11:43:00,36.1,27.6,30.49,WNW,283,3.0,3.0,71,0.00,,,0.00,HR-IXPWINDi_r2_v1.2.,2013-02-01 18:43:00,
2013-02-01 11:48:00,36.5,27.6,30.49,SW,224,0.0,3.0,70,0.00,,,0.00,HR-IXPWINDi_r2_v1.2.,2013-02-01 18:48:00,
2013-02-01 11:53:00,37.7,28.8,30.49,NW,326,1.0,3.0,70,0.00,,,0.00,HR-IXPWINDi_r2_v1.2.,2013-02-01 18:53:00,
2013-02-01 11:58:00,37.7,27.4,30.49,WNW,283,2.0,4.0,66,0.00,,,0.00,HR-IXPWINDi_r2_v1.2.,2013-02-01 18:58:00,
2013-02-01 12:03:00,37.5,27.9,30.48,NNE,20,2.0,4.0,68,0.00,,,0.00,HR-IXPWINDi_r2_v1.2.,2013-02-01 19:03:00,
2013-02-01 12:09:00,37.8,27.8,30.48,North,6,3.0,4.0,67,0.00,,,0.00,HR-IXPWINDi_r2_v1.2.,2013-02-01 19:09:00,
2013-02-01 12:14:00,37.5,27.5,30.48,WNW,286,2.0,4.0,67,0.00,,,0.00,HR-IXPWINDi_r2_v1.2.,2013-02-01 19:14:00,
2013-02-01 12:19:00,37.4,27.8,30.48,West,280,3.0,5.0,68,0.00,,,0.00,HR-IXPWINDi_r2_v1.2.,2013-02-01 19:19:00,
2013-02-01 12:24:00,37.5,27.5,30.47,ESE,115,1.0,5.0,67,0.00,,,0.00,HR-IXPWINDi_r2_v1.2.,2013-02-01 19:24:00,
2013-02-01 12:29:00,37.7,27.7,30.47,WNW,294,2.0,4.0,67,0.00,,,0.00,HR-IXPWINDi_r2_v1.2.,2013-02-01 19:29:00,
2013-02-01 12:35:00,38.4,28.0,30.47,NNE,25,3.0,4.0,66,0.00,,,0.00,HR-IXPWINDi_r2_v1.2.,2013-02-01 19:35:00,
2013-02-01 12:40:00,38.7,27.9,30.46,North,358,1.0,5.0,65,0.00,,,0.00,HR-IXPWINDi_r2_v1.2.,2013-02-01 19:40:00,
2013-02-01 12:45:00,38.9,28.1,30.46,North,352,1.0,5.0,65,0.00,,,0.00,HR-IXPWINDi_r2_v1.2.,2013-02-01 19:45:00,
2013-02-01 12:50:00,38.8,28.0,30.46,WNW,300,1.0,4.0,65,0.00,,,0.00,HR-IXPWINDi_r2_v1.2.,2013-02-01 19:50:00,
2013-02-01 12:55:00,38.8,28.0,30.46,West,263,2.0,4.0,65,0.00,,,0.00,HR-IXPWINDi_r2_v1.2.,2013-02-01 19:55:00,
2013-02-01 13:00:00,39.1,28.7,30.46,WNW,294,2.0,4.0,66,0.00,,,0.00,HR-IXPWINDi_r2_v1.2.,2013-02-01 20:00:00,
2013-02-01 13:05:00,39.5,29.1,30.46,NW,326,3.0,6.0,66,0.00,,,0.00,HR-IXPWINDi_r2_v1.2.,2013-02-01 20:05:00,
2013-02-01 13:10:00,39.4,29.0,30.45,WNW,288,3.0,6.0,66,0.00,,,0.00,HR-IXPWINDi_r2_v1.2.,2013-02-01 20:10:00,
2013-02-01 13:16:00,39.6,28.4,30.45,NW,309,2.0,6.0,64,0.00,,,0.00,HR-IXPWINDi_r2_v1.2.,2013-02-01 20:16:00,
2013-02-01 13:21:00,39.7,28.5,30.45,WNW,290,6.0,7.0,64,0.00,,,0.00,HR-IXPWINDi_r2_v1.2.,2013-02-01 20:21:00,
2013-02-01 13:26:00,39.5,28.3,30.45,NW,304,1.0,7.0,64,0.00,,,0.00,HR-IXPWINDi_r2_v1.2.,2013-02-01 20:26:00,
2013-02-01 13:32:00,39.7,27.3,30.44,NNE,22,2.0,7.0,61,0.00,,,0.00,HR-IXPWINDi_r2_v1.2.,2013-02-01 20:32:00,
2013-02-01 13:37:00,39.5,27.5,30.44,West,276,2.0,5.0,62,0.00,,,0.00,HR-IXPWINDi_r2_v1.2.,2013-02-01 20:37:00,
2013-02-01 13:42:00,40.0,29.2,30.44,West,276,3.0,6.0,65,0.00,,,0.00,HR-IXPWINDi_r2_v1.2.,2013-02-01 20:42:00,
2013-02-01 13:47:00,40.4,28.8,30.44,SW,229,2.0,6.0,63,0.00,,,0.00,HR-IXPWINDi_r2_v1.2.,2013-02-01 20:47:00,
2013-02-01 13:52:00,40.3,29.1,30.43,WNW,285,3.0,7.0,64,0.00,,,0.00,HR-IXPWINDi_r2_v1.2.,2013-02-01 20:52:00,
2013-02-01 13:57:00,40.3,28.7,30.43,West,280,6.0,7.0,63,0.00,,,0.00,HR-IXPWINDi_r2_v1.2.,2013-02-01 20:57:00,
2013-02-01 14:03:00,40.6,28.6,30.43,West,276,1.0,7.0,62,0.00,,,0.00,HR-IXPWINDi_r2_v1.2.,2013-02-01 21:03:00,
2013-02-01 14:08:00,40.4,28.0,30.43,WSW,245,2.0,7.0,61,0.00,,,0.00,HR-IXPWINDi_r2_v1.2.,2013-02-01 21:08:00,
2013-02-01 14:13:00,40.8,28.8,30.43,WNW,282,2.0,6.0,62,0.00,,,0.00,HR-IXPWINDi_r2_v1.2.,2013-02-01 21:13:00,
2013-02-01 14:19:00,40.7,29.1,30.43,WNW,290,3.0,6.0,63,0.00,,,0.00,HR-IXPWINDi_r2_v1.2.,2013-02-01 21:19:00,
2013-02-01 14:24:00,40.3,28.7,30.43,WNW,288,4.0,7.0,63,0.00,,,0.00,HR-IXPWINDi_r2_v1.2.,2013-02-01 21:24:00,
2013-02-01 14:29:00,40.6,29.0,30.43,WSW,255,1.0,7.0,63,0.00,,,0.00,HR-IXPWINDi_r2_v1.2.,2013-02-01 21:29:00,
2013-02-01 14:34:00,41.3,29.2,30.43,WNW,287,4.0,6.0,62,0.00,,,0.00,HR-IXPWINDi_r2_v1.2.,2013-02-01 21:34:00,
2013-02-01 14:40:00,41.3,28.0,30.42,NW,321,2.0,6.0,59,0.00,,,0.00,HR-IXPWINDi_r2_v1.2.,2013-02-01 21:40:00,
2013-02-01 14:45:00,41.5,28.6,30.42,WNW,295,3.0,7.0,60,0.00,,,0.00,HR-IXPWINDi_r2_v1.2.,2013-02-01 21:45:00,
2013-02-01 14:50:00,41.5,28.6,30.43,West,281,3.0,7.0,60,0.00,,,0.00,HR-IXPWINDi_r2_v1.2.,2013-02-01 21:50:00,
2013-02-01 14:56:00,42.0,28.7,30.43,WSW,250,3.0,7.0,59,0.00,,,0.00,HR-IXPWINDi_r2_v1.2.,2013-02-01 21:56:00,
2013-02-01 15:01:00,41.7,27.6,30.43,WNW,289,2.0,7.0,57,0.00,,,0.00,HR-IXPWINDi_r2_v1.2.,2013-02-01 22:01:00,
2013-02-01 15:06:00,41.7,28.0,30.43,WSW,257,2.0,7.0,58,0.00,,,0.00,HR-IXPWINDi_r2_v1.2.,2013-02-01 22:06:00,
2013-02-01 15:11:00,42.0,27.9,30.43,WNW,297,5.0,8.0,57,0.00,,,0.00,HR-IXPWINDi_r2_v1.2.,2013-02-01 22:11:00,
2013-02-01 15:16:00,42.1,28.4,30.43,West,273,4.0,8.0,58,0.00,,,0.00,HR-IXPWINDi_r2_v1.2.,2013-02-01 22:16:00,
2013-02-01 15:22:00,42.7,28.1,30.43,NW,309,3.0,7.0,56,0.00,,,0.00,HR-IXPWINDi_r2_v1.2.,2013-02-01 22:22:00,
2013-02-01 15:27:00,42.5,28.3,30.43,WNW,291,5.0,7.0,57,0.00,,,0.00,HR-IXPWINDi_r2_v1.2.,2013-02-01 22:27:00,
2013-02-01 15:32:00,42.6,27.5,30.43,NNW,335,4.0,7.0,55,0.00,,,0.00,HR-IXPWINDi_r2_v1.2.,2013-02-01 22:32:00,
2013-02-01 15:37:00,42.5,27.5,30.43,West,281,2.0,8.0,55,0.00,,,0.00,HR-IXPWINDi_r2_v1.2.,2013-02-01 22:37:00,
2013-02-01 15:42:00,42.9,28.3,30.43,WNW,283,3.0,8.0,56,0.00,,,0.00,HR-IXPWINDi_r2_v1.2.,2013-02-01 22:42:00,
2013-02-01 15:47:00,43.0,28.4,30.44,WNW,284,3.0,5.0,56,0.00,,,0.00,HR-IXPWINDi_r2_v1.2.,2013-02-01 22:47:00,
2013-02-01 15:53:00,43.2,28.5,30.44,WNW,299,1.0,4.0,56,0.00,,,0.00,HR-IXPWINDi_r2_v1.2.,2013-02-01 22:53:00,
2013-02-01 15:58:00,43.3,28.2,30.44,WNW,297,1.0,4.0,55,0.00,,,0.00,HR-IXPWINDi_r2_v1.2.,2013-02-01 22:58:00,
2013-02-01 16:03:00,43.7,27.7,30.44,WSW,238,0.0,4.0,53,0.00,,,0.00,HR-IXPWINDi_r2_v1.2.,2013-02-01 23:03:00,
2013-02-01 16:08:00,43.5,27.5,30.44,WNW,285,2.0,4.0,53,0.00,,,0.00,HR-IXPWINDi_r2_v1.2.,2013-02-01 23:08:00,
2013-02-01 16:13:00,43.2,27.7,30.44,NW,309,1.0,4.0,54,0.00,,,0.00,HR-IXPWINDi_r2_v1.2.,2013-02-01 23:13:00,
2013-02-01 16:19:00,43.2,28.1,30.43,WNW,293,3.0,4.0,55,0.00,,,0.00,HR-IXPWINDi_r2_v1.2.,2013-02-01 23:19:00,
2013-02-01 16:24:00,42.9,28.3,30.43,WNW,293,0.0,3.0,56,0.00,,,0.00,HR-IXPWINDi_r2_v1.2.,2013-02-01 23:24:00,
2013-02-01 16:29:00,43.7,28.1,30.44,WSW,257,1.0,3.0,54,0.00,,,0.00,HR-IXPWINDi_r2_v1.2.,2013-02-01 23:29:00,
2013-02-01 16:34:00,44.1,28.0,30.43,SW,233,0.0,2.0,53,0.00,,,0.00,HR-IXPWINDi_r2_v1.2.,2013-02-01 23:34:00,
2013-02-01 16:39:00,43.9,27.9,30.43,WNW,291,3.0,5.0,53,0.00,,,0.00,HR-IXPWINDi_r2_v1.2.,2013-02-01 23:39:00,
2013-02-01 16:44:00,43.1,27.1,30.44,WSW,252,2.0,5.0,53,0.00,,,0.00,HR-IXPWINDi_r2_v1.2.,2013-02-01 23:44:00,
2013-02-01 16:49:00,43.0,27.5,30.44,WSW,253,1.0,4.0,54,0.00,,,0.00,HR-IXPWINDi_r2_v1.2.,2013-02-01 23:49:00,
2013-02-01 16:54:00,43.0,27.5,30.44,WNW,284,1.0,3.0,54,0.00,,,0.00,HR-IXPWINDi_r2_v1.2.,2013-02-01 23:54:00,
2013-02-01 17:00:00,42.8,27.7,30.43,WNW,283,1.0,2.0,55,0.00,,,0.00,HR-IXPWINDi_r2_v1.2.,2013-02-02 00:00:00,
2013-02-01 17:05:00,43.3,28.2,30.44,West,262,1.0,2.0,55,0.00,,,0.00,HR-IXPWINDi_r2_v1.2.,2013-02-02 00:05:00,
2013-02-01 17:10:00,43.2,28.1,30.44,WSW,252,1.0,2.0,55,0.00,,,0.00,HR-IXPWINDi_r2_v1.2.,2013-02-02 00:10:00,
2013-02-01 17:16:00,42.7,28.1,30.43,West,274,1.0,2.0,56,0.00,,,0.00,HR-IXPWINDi_r2_v1.2.,2013-02-02 00:16:00,
2013-02-01 17:21:00,42.0,27.4,30.44,West,271,1.0,2.0,56,0.00,,,0.00,HR-IXPWINDi_r2_v1.2.,2013-02-02 00:21:00,
2013-02-01 17:26:00,41.2,27.5,30.44,West,277,1.0,2.0,58,0.00,,,0.00,HR-IXPWINDi_r2_v1.2.,2013-02-02 00:26:00,
2013-02-01 17:31:00,40.5,27.7,30.43,WSW,250,2.0,2.0,60,0.00,,,0.00,HR-IXPWINDi_r2_v1.2.,2013-02-02 00:31:00,
2013-02-01 17:37:00,40.0,27.6,30.44,WSW,250,0.0,2.0,61,0.00,,,0.00,HR-IXPWINDi_r2_v1.2.,2013-02-02 00:37:00,
2013-02-01 17:42:00,39.3,27.4,30.44,WSW,252,1.0,2.0,62,0.00,,,0.00,HR-IXPWINDi_r2_v1.2.,2013-02-02 00:42:00,
2013-02-01 17:47:00,38.7,27.2,30.44,WSW,242,0.0,2.0,63,0.00,,,0.00,HR-IXPWINDi_r2_v1.2.,2013-02-02 00:47:00,
2013-02-01 17:52:00,38.2,27.1,30.44,West,271,2.0,2.0,64,0.00,,,0.00,HR-IXPWINDi_r2_v1.2.,2013-02-02 00:52:00,
2013-02-01 17:57:00,37.7,27.0,30.45,West,281,1.0,2.0,65,0.00,,,0.00,HR-IXPWINDi_r2_v1.2.,2013-02-02 00:57:00,
2013-02-01 18:02:00,37.1,26.8,30.45,WSW,245,1.0,2.0,66,0.00,,,0.00,HR-IXPWINDi_r2_v1.2.,2013-02-02 01:02:00,
2013-02-01 18:08:00,36.4,26.8,30.45,WSW,249,0.0,2.0,68,0.00,,,0.00,HR-IXPWINDi_r2_v1.2.,2013-02-02 01:08:00,
2013-02-01 18:13:00,35.9,26.7,30.46,WSW,249,0.0,2.0,69,0.00,,,0.00,HR-IXPWINDi_r2_v1.2.,2013-02-02 01:13:00,
2013-02-01 18:18:00,35.6,26.8,30.46,WSW,249,0.0,1.0,70,0.00,,,0.00,HR-IXPWINDi_r2_v1.2.,2013-02-02 01:18:00,
2013-02-01 18:24:00,35.3,26.8,30.46,WSW,249,0.0,1.0,71,0.00,,,0.00,HR-IXPWINDi_r2_v1.2.,2013-02-02 01:24:00,
2013-02-01 18:29:00,34.9,26.8,30.46,WSW,249,0.0,1.0,72,0.00,,,0.00,HR-IXPWINDi_r2_v1.2.,2013-02-02 01:29:00,
2013-02-01 18:34:00,34.6,26.5,30.46,WSW,249,0.0,1.0,72,0.00,,,0.00,HR-IXPWINDi_r2_v1.2.,2013-02-02 01:34:00,
2013-02-01 18:39:00,34.5,26.7,30.46,WSW,249,0.0,1.0,73,0.00,,,0.00,HR-IXPWINDi_r2_v1.2.,2013-02-02 01:39:00,
2013-02-01 18:45:00,34.4,26.6,30.46,WSW,250,0.0,0.0,73,0.00,,,0.00,HR-IXPWINDi_r2_v1.2.,2013-02-02 01:45:00,
2013-02-01 18:50:00,34.1,26.7,30.47,WSW,250,0.0,0.0,74,0.00,,,0.00,HR-IXPWINDi_r2_v1.2.,2013-02-02 01:50:00,
2013-02-01 18:55:00,33.7,26.3,30.47,NNW,330,0.0,0.0,74,0.00,,,0.00,HR-IXPWINDi_r2_v1.2.,2013-02-02 01:55:00,
2013-02-01 19:00:00,33.3,26.5,30.47,NNW,330,0.0,0.0,76,0.00,,,0.00,HR-IXPWINDi_r2_v1.2.,2013-02-02 02:00:00,
2013-02-01 19:05:00,32.8,26.1,30.47,NNW,330,0.0,0.0,76,0.00,,,0.00,HR-IXPWINDi_r2_v1.2.,2013-02-02 02:05:00,
2013-02-01 19:10:00,32.5,26.1,30.48,NNW,330,0.0,0.0,77,0.00,,,0.00,HR-IXPWINDi_r2_v1.2.,2013-02-02 02:10:00,
2013-02-01 19:16:00,32.1,26.0,30.48,NNW,333,0.0,0.0,78,0.00,,,0.00,HR-IXPWINDi_r2_v1.2.,2013-02-02 02:16:00,
2013-02-01 19:21:00,32.1,26.0,30.48,North,352,0.0,0.0,78,0.00,,,0.00,HR-IXPWINDi_r2_v1.2.,2013-02-02 02:21:00,
2013-02-01 19:26:00,32.0,25.9,30.48,North,356,0.0,0.0,78,0.00,,,0.00,HR-IXPWINDi_r2_v1.2.,2013-02-02 02:26:00,
2013-02-01 19:31:00,31.6,25.8,30.48,North,4,0.0,0.0,79,0.00,,,0.00,HR-IXPWINDi_r2_v1.2.,2013-02-02 02:31:00,
2013-02-01 19:36:00,31.2,25.7,30.48,North,4,0.0,0.0,80,0.00,,,0.00,HR-IXPWINDi_r2_v1.2.,2013-02-02 02:36:00,
2013-02-01 19:41:00,31.0,25.5,30.48,North,4,0.0,0.0,80,0.00,,,0.00,HR-IXPWINDi_r2_v1.2.,2013-02-02 02:41:00,
2013-02-01 19:47:00,30.9,25.7,30.48,North,359,0.0,0.0,81,0.00,,,0.00,HR-IXPWINDi_r2_v1.2.,2013-02-02 02:47:00,
2013-02-01 19:52:00,30.6,25.5,30.49,North,360,0.0,0.0,81,0.00,,,0.00,HR-IXPWINDi_r2_v1.2.,2013-02-02 02:52:00,
2013-02-01 19:57:00,30.2,25.1,30.49,North,360,0.0,0.0,81,0.00,,,0.00,HR-IXPWINDi_r2_v1.2.,2013-02-02 02:57:00,
2013-02-01 20:02:00,29.8,24.7,30.49,North,360,0.0,0.0,81,0.00,,,0.00,HR-IXPWINDi_r2_v1.2.,2013-02-02 03:02:00,
2013-02-01 20:08:00,29.6,25.1,30.49,North,360,0.0,0.0,83,0.00,,,0.00,HR-IXPWINDi_r2_v1.2.,2013-02-02 03:08:00,
2013-02-01 20:13:00,29.4,24.9,30.50,NE,51,0.0,0.0,83,0.00,,,0.00,HR-IXPWINDi_r2_v1.2.,2013-02-02 03:13:00,
2013-02-01 20:18:00,29.2,25.0,30.50,NE,51,0.0,0.0,84,0.00,,,0.00,HR-IXPWINDi_r2_v1.2.,2013-02-02 03:18:00,
2013-02-01 20:23:00,29.3,25.1,30.50,ESE,110,0.0,0.0,84,0.00,,,0.00,HR-IXPWINDi_r2_v1.2.,2013-02-02 03:23:00,
2013-02-01 20:29:00,29.1,24.9,30.50,ESE,110,0.0,0.0,84,0.00,,,0.00,HR-IXPWINDi_r2_v1.2.,2013-02-02 03:29:00,
2013-02-01 20:34:00,29.1,25.1,30.50,ESE,110,0.0,0.0,85,0.00,,,0.00,HR-IXPWINDi_r2_v1.2.,2013-02-02 03:34:00,
2013-02-01 20:39:00,29.1,25.1,30.51,SE,129,0.0,0.0,85,0.00,,,0.00,HR-IXPWINDi_r2_v1.2.,2013-02-02 03:39:00,
2013-02-01 20:44:00,29.0,25.0,30.51,SSE,160,0.0,0.0,85,0.00,,,0.00,HR-IXPWINDi_r2_v1.2.,2013-02-02 03:44:00,
2013-02-01 20:50:00,29.1,25.1,30.51,SSE,160,0.0,0.0,85,0.00,,,0.00,HR-IXPWINDi_r2_v1.2.,2013-02-02 03:50:00,
2013-02-01 20:55:00,28.9,25.0,30.51,SSE,161,0.0,0.0,85,0.00,,,0.00,HR-IXPWINDi_r2_v1.2.,2013-02-02 03:55:00,
2013-02-01 21:00:00,28.6,24.7,30.51,SSE,160,0.0,0.0,85,0.00,,,0.00,HR-IXPWINDi_r2_v1.2.,2013-02-02 04:00:00,
2013-02-01 21:05:00,28.3,24.4,30.52,SSE,159,0.0,0.0,85,0.00,,,0.00,HR-IXPWINDi_r2_v1.2.,2013-02-02 04:05:00,
2013-02-01 21:10:00,28.1,24.2,30.51,SSE,159,0.0,0.0,85,0.00,,,0.00,HR-IXPWINDi_r2_v1.2.,2013-02-02 04:10:00,
2013-02-01 21:16:00,27.9,24.3,30.51,SSE,159,0.0,0.0,86,0.00,,,0.00,HR-IXPWINDi_r2_v1.2.,2013-02-02 04:16:00,
2013-02-01 21:21:00,27.7,24.1,30.52,SSE,159,0.0,0.0,86,0.00,,,0.00,HR-IXPWINDi_r2_v1.2.,2013-02-02 04:21:00,
2013-02-01 21:26:00,27.5,23.9,30.52,SSE,159,0.0,0.0,86,0.00,,,0.00,HR-IXPWINDi_r2_v1.2.,2013-02-02 04:26:00,
2013-02-01 21:31:00,27.2,23.6,30.52,SE,134,0.0,0.0,86,0.00,,,0.00,HR-IXPWINDi_r2_v1.2.,2013-02-02 04:31:00,
2013-02-01 21:37:00,26.8,23.2,30.52,ESE,103,0.0,0.0,86,0.00,,,0.00,HR-IXPWINDi_r2_v1.2.,2013-02-02 04:37:00,
2013-02-01 21:42:00,26.7,23.3,30.53,ESE,105,0.0,0.0,87,0.00,,,0.00,HR-IXPWINDi_r2_v1.2.,2013-02-02 04:42:00,
2013-02-01 21:47:00,26.5,23.2,30.53,ESE,105,0.0,0.0,87,0.00,,,0.00,HR-IXPWINDi_r2_v1.2.,2013-02-02 04:47:00,
2013-02-01 21:52:00,26.3,23.0,30.53,East,84,0.0,0.0,87,0.00,,,0.00,HR-IXPWINDi_r2_v1.2.,2013-02-02 04:52:00,
2013-02-01 21:57:00,26.1,22.8,30.54,NE,56,0.0,0.0,87,0.00,,,0.00,HR-IXPWINDi_r2_v1.2.,2013-02-02 04:57:00,
2013-02-01 22:08:00,25.9,22.8,30.54,ENE,57,0.0,0.0,88,0.00,,,0.00,HR-IXPWINDi_r2_v1.2.,2013-02-02 05:08:00,
2013-02-01 22:13:00,25.7,22.6,30.54,ENE,57,0.0,0.0,88,0.00,,,0.00,HR-IXPWINDi_r2_v1.2.,2013-02-02 05:13:00,
2013-02-01 22:18:00,25.5,22.4,30.54,ENE,57,0.0,0.0,88,0.00,,,0.00,HR-IXPWINDi_r2_v1.2.,2013-02-02 05:18:00,
2013-02-01 22:23:00,25.4,22.6,30.55,NW,317,0.0,0.0,89,0.00,,,0.00,HR-IXPWINDi_r2_v1.2.,2013-02-02 05:23:00,
2013-02-01 22:28:00,25.5,22.7,30.55,NW,313,0.0,0.0,89,0.00,,,0.00,HR-IXPWINDi_r2_v1.2.,2013-02-02 05:28:00,
2013-02-01 22:34:00,25.5,22.7,30.55,NW,313,0.0,0.0,89,0.00,,,0.00,HR-IXPWINDi_r2_v1.2.,2013-02-02 05:34:00,
2013-02-01 22:39:00,25.6,22.8,30.55,NW,314,0.0,0.0,89,0.00,,,0.00,HR-IXPWINDi_r2_v1.2.,2013-02-02 05:39:00,
2013-02-01 22:44:00,25.5,22.7,30.55,NW,313,0.0,0.0,89,0.00,,,0.00,HR-IXPWINDi_r2_v1.2.,2013-02-02 05:44:00,
2013-02-01 22:49:00,25.8,23.3,30.55,NW,313,0.0,0.0,90,0.00,,,0.00,HR-IXPWINDi_r2_v1.2.,2013-02-02 05:49:00,
2013-02-01 22:54:00,25.7,22.6,30.55,NW,314,0.0,0.0,88,0.00,,,0.00,HR-IXPWINDi_r2_v1.2.,2013-02-02 05:54:00,
2013-02-01 22:59:00,25.3,22.2,30.55,NW,313,0.0,0.0,88,0.00,,,0.00,HR-IXPWINDi_r2_v1.2.,2013-02-02 05:59:00,
2013-02-01 23:04:00,24.9,21.9,30.55,NW,314,0.0,0.0,88,0.00,,,0.00,HR-IXPWINDi_r2_v1.2.,2013-02-02 06:04:00,
2013-02-01 23:10:00,24.6,21.8,30.55,NW,314,0.0,0.0,89,0.00,,,0.00,HR-IXPWINDi_r2_v1.2.,2013-02-02 06:10:00,
2013-02-01 23:15:00,24.5,21.7,30.56,NW,313,0.0,0.0,89,0.00,,,0.00,HR-IXPWINDi_r2_v1.2.,2013-02-02 06:15:00,
2013-02-01 23:20:00,24.3,21.5,30.56,NW,313,0.0,0.0,89,0.00,,,0.00,HR-IXPWINDi_r2_v1.2.,2013-02-02 06:20:00,
2013-02-01 23:25:00,24.2,21.4,30.56,NW,321,0.0,0.0,89,0.00,,,0.00,HR-IXPWINDi_r2_v1.2.,2013-02-02 06:25:00,
2013-02-01 23:30:00,24.0,21.2,30.56,NW,322,0.0,0.0,89,0.00,,,0.00,HR-IXPWINDi_r2_v1.2.,2013-02-02 06:30:00,
2013-02-01 23:36:00,23.9,21.4,30.56,NW,321,0.0,0.0,90,0.00,,,0.00,HR-IXPWINDi_r2_v1.2.,2013-02-02 06:36:00,
2013-02-01 23:41:00,24.0,21.5,30.56,NW,321,0.0,0.0,90,0.00,,,0.00,HR-IXPWINDi_r2_v1.2.,2013-02-02 06:41:00,
2013-02-01 23:46:00,23.9,21.7,30.56,NW,322,0.0,0.0,91,0.00,,,0.00,HR-IXPWINDi_r2_v1.2.,2013-02-02 06:46:00,
2013-02-01 23:51:00,23.7,21.2,30.56,NW,322,0.0,0.0,90,0.00,,,0.00,HR-IXPWINDi_r2_v1.2.,2013-02-02 06:51:00,
2013-02-01 23:57:00,23.4,20.9,30.56,NNE,18,0.0,0.0,90,0.00,,,0.00,HR-IXPWINDi_r2_v1.2.,2013-02-02 06:57:00,